This demonstration page uses our WeatherBlox Daily Observations layout. Learn more.

Left ArrowRight Arrow

Hourly Observations for August 1, 2017

Temp ( °F °C ) Dew Point ( °F °C ) Humidity (%) Winds ( mph kmh ) Pressure ( in mb ) Visibility ( mi km ) Precip ( " mm )
12:52 am 00:52 Cloudy 74 23.3 64 17.8 71 71 ESE 7 11 30.05 1018 10 16 0.00 0.00
1:52 am 01:52 Cloudy 73 22.8 65 18.3 76 76 NE 8 13 30.05 1018 10 16 0.00 0.00
2:52 am 02:52 Cloudy 72 22.2 65 18.3 79 79 ESE 5 7 30.04 1017 10 16 0.00 0.00
3:52 am 03:52 Cloudy 73 22.8 64 17.8 74 74 Calm 30.04 1017 10 16 0.00 0.00
4:52 am 04:52 Cloudy 73 22.8 64 17.8 74 74 Calm 30.04 1017 10 16 0.00 0.00
5:52 am 05:52 Cloudy 72 22.2 64 17.8 76 76 ESE 3 6 30.05 1018 10 16 0.00 0.03
6:52 am 06:52 Cloudy 72 22.2 64 17.8 76 76 undefined N/A 30.06 1018 10 16 0.00 0.00
7:52 am 07:52 Partly Cloudy 71 21.7 65 18.3 81 81 undefined N/A 30.09 1019 10 16 0.00 0.00
8:52 am 08:52 Sunny 72 22.2 67 19.4 84 84 undefined N/A 30.10 1019 10 16 0.00 0.00
9:52 am 09:52 Sunny 76 24.4 67 19.4 74 74 undefined N/A 30.08 1019 10 16 0.00 0.00
10:52 am 10:52 Sunny 80 26.7 68 20 67 67 undefined N/A 30.08 1019 10 16 0.00 0.00
11:52 am 11:52 Mostly Sunny 81 27.2 65 18.3 58 58 VRB 5 7 30.07 1018 10 16 0.00 0.00
12:52 pm 12:52 Sunny 83 28.3 62 16.7 49 49 WSW 8 13 30.06 1018 10 16 0.00 0.00
1:52 pm 13:52 Mostly Sunny 84 28.9 63 17.2 49 49 undefined N/A 30.05 1018 10 16 0.00 0.00
2:52 pm 14:52 Cloudy 83 28.3 62 16.7 49 49 W 7 11 30.05 1018 10 16 0.00 0.00
3:52 pm 15:52 Cloudy 83 28.3 60 15.6 46 46 W 5 7 30.03 1017 10 16 0.00 0.00
4:52 pm 16:52 Sunny 85 29.4 60 15.6 43 43 NW 6 9 30.01 1016 10 16 0.00 0.00
5:52 pm 17:52 Sunny 84 28.9 60 15.6 44 44 W 3 6 30.01 1016 10 16 0.00 0.00
6:52 pm 18:52 Mostly Cloudy 82 27.8 62 16.7 51 51 SSW 8 13 30.01 1016 10 16 0.00 0.00
7:52 pm 19:52 Cloudy 79 26.1 63 17.2 58 58 SW 7 11 30.03 1017 10 16 0.00 0.00
8:52 pm 20:52 Mostly Cloudy 75 23.9 64 17.8 69 69 SW 7 11 30.03 1017 10 16 0.00 0.00
9:52 pm 21:52 Clear 73 22.8 63 17.2 71 71 SSW 3 6 30.05 1018 10 16 0.00 0.00
10:52 pm 22:52 Cloudy 74 23.3 65 18.3 74 74 Calm 30.06 1018 10 16 0.00 0.00
11:52 pm 23:52 Cloudy 73 22.8 68 20 84 84 SW 5 7 30.06 1018 10 16 0.00 0.00

Powered by AerisWeather